EW5449 Weather Reports


time (UTC)temp
C
wind
direction
speed
KPH
gust
KPH
rain 1hr
cm
rain 24hr
cm
rain mn
cm
humidity
%
barometer
mb
20260507213023 19 5 0.0 3.2 0.00 0.00 0.00 40 1006.8
20260507211518 19 360 0.0 3.2 0.00 0.00 0.00 39 1006.8
20260507210024 20 333 0.0 4.8 0.00 0.00 0.00 37 1006.7
20260507204515 19 173 0.0 3.2 0.00 0.00 0.00 40 1006.7
20260507203015 19 114 0.0 3.2 0.00 0.00 0.00 39 1006.8
20260507201512 19 124 0.0 3.2 0.00 0.00 0.00 40 1006.8
20260507200013 19 172 0.0 3.2 0.00 0.00 0.00 39 1007.0
20260507194525 20 132 0.0 4.8 0.00 0.00 0.00 41 1007.1
20260507193008 20 201 1.6 6.4 0.00 0.00 0.00 35 1007.4
20260507191505 21 349 0.0 3.2 0.00 0.00 0.00 36 1007.6
20260507190010 21 329 0.0 9.7 0.00 0.00 0.00 37 1007.7
20260507184559 20 355 0.0 4.8 0.00 0.00 0.00 40 1007.9
20260507183114 19 179 0.0 3.2 0.00 0.00 0.00 37 1008.0
20260507181559 19 335 1.6 14.5 0.00 0.00 0.00 38 1008.3
20260507180053 18 209 1.6 6.4 0.00 0.00 0.00 39 1008.4
20260507174559 18 325 1.6 6.4 0.00 0.00 0.00 40 1008.7
20260507173048 18 209 0.0 4.8 0.00 0.00 0.00 41 1009.0
20260507171543 18 192 3.2 9.7 0.00 0.00 0.00 41 1009.3
20260507170043 18 355 1.6 12.9 0.00 0.00 0.00 41 1009.6
20260507164546 17 344 3.2 14.5 0.00 0.00 0.00 41 1010.0
20260507163035 17 348 1.6 8.0 0.00 0.00 0.00 42 1010.1
20260507161547 16 350 0.0 6.4 0.00 0.00 0.00 41 1010.3
20260507160029 16 215 0.0 8.0 0.00 0.00 0.00 45 1010.6
20260507154527 15 335 0.0 6.4 0.00 0.00 0.00 43 1010.9
20260507153033 15 355 1.6 6.4 0.00 0.00 0.00 45 1011.0
20260507151523 15 342 0.0 6.4 0.00 0.00 0.00 47 1011.2
20260507150020 14 204 1.6 9.7 0.00 0.00 0.00 49 1011.3
20260507144518 13 221 0.0 8.0 0.00 0.00 0.00 51 1011.4
20260507143022 12 205 0.0 4.8 0.00 0.00 0.00 53 1011.9
20260507141520 12 338 0.0 3.2 0.00 0.00 0.00 53 1012.1
20260507140020 12 323 0.0 4.8 0.00 0.00 0.00 52 1012.4
20260507134515 12 346 0.0 3.2 0.00 0.03 0.00 52 1012.6
20260507133015 12 345 1.6 6.4 0.00 0.03 0.00 50 1012.8
20260507131518 12 329 0.0 6.4 0.00 0.03 0.00 51 1012.7
20260507130012 12 336 0.0 3.2 0.00 0.03 0.00 53 1012.7
20260507124516 11 225 0.0 3.2 0.00 0.18 0.00 54 1012.6
20260507123011 11 337 0.0 3.2 0.00 0.18 0.00 54 1012.6
20260507121513 11 342 0.0 3.2 0.00 0.18 0.00 56 1012.5
20260507120009 11 338 0.0 3.2 0.00 0.18 0.00 54 1012.5
20260507114508 11 336 0.0 3.2 0.00 0.28 0.00 55 1012.4
20260507113019 11 343 0.0 4.8 0.00 0.28 0.00 54 1012.2
20260507111504 11 349 1.6 6.4 0.00 0.28 0.00 54 1011.9
20260507110001 11 340 0.0 6.4 0.00 0.28 0.00 56 1012.0
20260507104559 11 340 0.0 4.8 0.00 0.28 0.00 56 1011.8
20260507103058 11 340 0.0 4.8 0.00 0.28 0.00 57 1011.7
20260507101556 11 348 1.6 4.8 0.00 0.28 0.00 57 1011.5
20260507100057 11 336 0.0 6.4 0.00 0.28 0.00 59 1011.2
20260507094551 12 339 1.6 6.4 0.00 0.28 0.00 63 1011.2
20260507093051 12 349 0.0 3.2 0.00 0.28 0.00 70 1011.1
20260507091558 12 340 0.0 3.2 0.00 0.28 0.00 71 1011.0
20260507090048 12 331 0.0 3.2 0.00 0.28 0.00 70 1011.0
20260507084553 12 330 0.0 3.2 0.00 0.28 0.00 70 1011.0
20260507083045 12 333 0.0 3.2 0.00 0.28 0.00 70 1011.0
20260507081552 12 340 0.0 3.2 0.00 0.28 0.00 70 1011.0
20260507080045 12 338 0.0 3.2 0.00 0.28 0.00 69 1011.0
20260507074549 12 344 0.0 3.2 0.00 0.28 0.00 69 1010.6
20260507073043 12 346 0.0 3.2 0.00 0.28 0.00 69 1010.4
20260507071542 12 296 0.0 3.2 0.00 0.28 0.00 70 1010.5
20260507070045 12 336 0.0 3.2 0.00 0.28 0.00 70 1010.4
20260507064540 12 334 0.0 3.2 0.00 0.28 0.00 70 1010.6
20260507063042 12 334 0.0 3.2 0.00 0.28 0.00 69 1010.7
20260507061539 12 314 0.0 6.4 0.00 0.28 0.00 69 1011.0
20260507060037 13 338 0.0 3.2 0.00 0.28 0.00 68 1011.1
20260507054534 13 330 0.0 3.2 0.00 0.28 0.00 69 1011.0
20260507053032 13 342 0.0 4.8 0.00 0.28 0.00 70 1011.0
20260507051531 13 340 0.0 6.4 0.00 0.28 0.00 70 1010.7
20260507050032 13 210 0.0 4.8 0.00 0.28 0.00 71 1010.9
20260507044527 13 355 0.0 9.7 0.00 0.28 0.00 72 1010.5
20260507043027 13 328 3.2 6.4 0.00 0.28 0.00 75 1010.5
20260507041521 13 339 0.0 12.9 0.00 0.28 0.00 75 1010.1
20260507040016 14 333 0.0 9.7 0.00 0.28 0.00 74 1010.5
20260507034522 14 342 0.0 6.4 0.00 0.28 0.28 74 1009.8
20260507033015 14 323 1.6 6.4 0.00 0.28 0.28 73 1010.4
20260507031511 15 346 1.6 8.0 0.00 0.28 0.28 72 1010.3
20260507030010 15 336 0.0 3.2 0.00 0.28 0.28 71 1009.9
20260507024514 15 343 0.0 8.0 0.00 0.28 0.28 70 1010.1
20260507023008 15 328 3.2 6.4 0.00 0.28 0.28 70 1010.1
20260507021506 15 338 1.6 9.7 0.00 0.28 0.28 70 1009.4
20260507020005 16 334 0.0 4.8 0.00 0.28 0.28 71 1009.4
20260507014503 16 340 0.0 8.0 0.00 0.28 0.28 70 1009.6
20260507013003 16 338 1.6 4.8 0.00 0.28 0.28 70 1009.6
20260507011501 16 340 0.0 3.2 0.00 0.28 0.28 71 1009.1
20260507010101 17 340 0.0 3.2 0.00 0.28 0.28 71 1008.8
20260507004603 17 342 0.0 6.4 0.00 0.28 0.28 72 1009.0
20260507003115 17 340 0.0 4.8 0.00 0.28 0.28 73 1009.1
20260507001614 17 337 0.0 3.2 0.00 0.28 0.28 74 1008.8
20260507000056 17 329 0.0 4.8 0.00 0.28 0.28 73 1008.7
20260506234555 18 338 0.0 3.2 0.00 0.28 0.28 73 1008.6
20260506233055 18 340 0.0 4.8 0.00 0.28 0.28 73 1007.9
20260506231559 18 174 0.0 3.2 0.00 0.28 0.28 73 1007.8
20260506224551 19 344 0.0 6.4 0.00 0.28 0.28 74 1007.3
20260506223050 20 349 1.6 8.0 0.00 0.28 0.28 74 1007.2
20260506221604 20 346 0.0 3.2 0.00 0.28 0.28 77 1006.8
20260506220050 20 342 0.0 4.8 0.00 0.28 0.28 77 1006.8
20260506214554 20 338 0.0 3.2 0.00 0.28 0.28 75 1006.5